Flight Track Log - Related Links

Times and Time Zones

All times are in EST time to prevent confusion due to time zone crossing. See the CHQ5281 flight status page for this flight to view local times or setup timezone preferences in your user account.

Time Position Orientation Groundspeed Altitude Reporting Facility
EST Latitude Longitude Course Direction KTS MPH feet Rate Location/Type
Wed 03:50:04 PM 41.9056 -91.6272 44° Northeast 201 231 4,100  Level Chicago Center
Wed 03:51:06 PM 41.9603 -91.5544 45° Northeast 223 257 6,500 2,468 Climbing Chicago Center
Wed 03:52:00 PM 42.0471 -91.4695 37° Northeast  Level FlightAware Approximate
Wed 03:52:08 PM 42.0153 -91.4867 42° Northeast 253 291 9,200  Level Chicago Center
Wed 03:53:00 PM 42.0897 -91.4137 45° Northeast  Level FlightAware Approximate
Wed 03:53:10 PM 42.0708 -91.4153 44° Northeast 275 316 10,600  Level Chicago Center
Wed 03:54:00 PM 42.1283 -91.3530 51° Northeast  Level FlightAware Approximate
Wed 03:54:12 PM 42.1333 -91.3333 44° Northeast 307 353 12,400  Level Chicago Center
Wed 03:55:00 PM 42.1904 -91.2648 44° Northeast  Level FlightAware Approximate
Wed 03:55:14 PM 42.1992 -91.2492 43° Northeast 323 372 14,100  Level Chicago Center
Wed 03:56:17 PM 42.2792 -91.1444 44° Northeast 335 386 16,300 1,872 Climbing Chicago Center
Wed 03:57:19 PM 42.3467 -91.0567 44° Northeast 339 390 18,000 1,210 Climbing Chicago Center
Wed 03:58:21 PM 42.4183 -90.9628 44° Northeast 353 406 18,800 484 Climbing Chicago Center
Wed 03:59:23 PM 42.4939 -90.8622 44° Northeast 375 432 19,000 97 Climbing Chicago Center
Wed 04:00:25 PM 42.5247 -90.7208 73° East 407 468 19,000  Level Chicago Center
Wed 04:01:27 PM 42.5222 -90.5364 91° East 410 472 19,000  Level Chicago Center
Wed 04:02:29 PM 42.5206 -90.3839 91° East 409 471 19,000  Level Chicago Center
Wed 04:03:31 PM 42.5192 -90.2308 91° East 409 471 19,000  Level Chicago Center
Wed 04:04:33 PM 42.5178 -90.0794 91° East 406 467 19,000  Level Chicago Center
Wed 04:05:36 PM 42.5169 -89.9008 90° East 403 464 19,000 -48 Level Chicago Center
Wed 04:06:38 PM 42.5161 -89.7456 90° East 413 475 18,900 -581 Descending Chicago Center
Wed 04:07:40 PM 42.5142 -89.5900 91° East 415 478 17,800 -823 Descending Chicago Center
Wed 04:08:42 PM 42.5111 -89.4392 92° East 406 467 17,200 -629 Descending Chicago Center
Wed 04:09:44 PM 42.5097 -89.2972 91° East 384 442 16,500 -968 Descending Chicago Center
Wed 04:10:46 PM 42.5056 -89.1303 92° East 372 428 15,200 -1,113 Descending Chicago Center
Wed 04:11:48 PM 42.5064 -88.9956 89° East 362 417 14,200 -1,016 Descending Chicago Center
Wed 04:12:50 PM 42.4897 -88.8778 101° East 331 381 13,100 -1,113 Descending Chicago Center
Wed 04:13:52 PM 42.4539 -88.7608 113° Southeast 334 384 11,900 -960 Descending Chicago Center
Wed 04:14:55 PM 42.4219 -88.6544 112° Southeast 317 365 11,100 -816 Descending Chicago Center
Wed 04:15:57 PM 42.3861 -88.5386 113° Southeast 292 336 10,200 -1,210 Descending Chicago Center
Wed 04:16:59 PM 42.3314 -88.4825 143° Southeast 278 320 8,600 -1,597 Descending Chicago Center
Wed 04:18:01 PM 42.2567 -88.4614 168° South 264 304 6,900 -1,597 Descending Chicago Center
Wed 04:19:03 PM 42.1886 -88.4453 170° South 250 288 5,300 -1,355 Descending Chicago Center
Wed 04:20:05 PM 42.1169 -88.4281 170° South 246 283 4,100 -629 Descending Chicago Center
Wed 04:21:07 PM 42.0497 -88.4197 175° South 244 281 4,000 -48 Descending Chicago Center
Wed 04:22:09 PM 42.0031 -88.3783 147° Southeast 204 235 4,000  Level Chicago Center
Wed 04:23:11 PM 42.0011 -88.3064 92° East 193 222 4,000  Level Chicago Center
Wed 04:24:13 PM 42.0014 -88.2425 90° East 164 189 4,000  Level Chicago Center
Wed 04:25:17 PM 42.0011 -88.1825 90° East 161 185 4,000 -97 Level Chicago Center
Wed 04:26:17 PM 42.0011 -88.1197 90° East 168 193 3,800 -545 Descending Chicago Center
Wed 04:27:07 PM 42.0000 -88.0667 92° East 161 185 3,000 -914 Descending Chicago TRACON
Wed 04:28:02 PM 42.0000 -88.0167 90° East 165 190 2,200 -835 Descending Chicago TRACON
Wed 04:29:02 PM 42.0000 -87.9667 90° East 126 145 1,400 -800 Descending Chicago TRACON

Login

Don't have an account? Register now (free) for customized features, flight alerts, and more!